• In Belarus
  • List of Countries
  • For 7 days
  • Water Temperature
  • Satellite Maps
  • Weather Map
  • Weather Widgets
  • user-avatar
    Login

    Hourly Weather Baryshevka

    Today, 18 June, Monday

    Time Temperature Precipitation Wind Pressure Humidity
    00:00 +20°C° 0.1 mm 2 mps 751 mmHg 91%
    01:00 +20°C° 0.1 mm 2 mps 751 mmHg 92%
    02:00 +20°C° 0 mm 2 mps 750 mmHg 93%
    03:00 +19°C° 0.9 mm 2 mps 751 mmHg 93%
    04:00 +19°C° 0.9 mm 2 mps 751 mmHg 93%
    05:00 +19°C° 0.9 mm 2 mps 751 mmHg 93%
    06:00 +20°C° 0.2 mm 2 mps 751 mmHg 89%
    07:00 +23°C° 0.2 mm 2 mps 751 mmHg 84%
    08:00 +24°C° 0 mm 2 mps 751 mmHg 78%
    09:00 +25°C° 0.1 mm 3 mps 751 mmHg 73%
    10:00 +26°C° 0.1 mm 3 mps 751 mmHg 67%
    11:00 +27°C° 0.1 mm 3 mps 751 mmHg 61%
    12:00 +28°C° 0.1 mm 3 mps 752 mmHg 59%
    13:00 +28°C° 0.1 mm 3 mps 752 mmHg 58%
    14:00 +28°C° 0.1 mm 3 mps 752 mmHg 56%
    15:00 +28°C° 0.1 mm 3 mps 752 mmHg 59%
    16:00 +28°C° 0.1 mm 3 mps 752 mmHg 62%
    17:00 +27°C° 0.1 mm 2 mps 752 mmHg 65%
    18:00 +26°C° 0 mm 2 mps 752 mmHg 69%
    19:00 +24°C° 0 mm 2 mps 752 mmHg 74%
    20:00 +23°C° 0 mm 2 mps 752 mmHg 78%
    21:00 +21°C° 0 mm 2 mps 752 mmHg 79%
    22:00 +20°C° 0 mm 2 mps 752 mmHg 80%
    23:00 +21°C° 0 mm 1 mps 753 mmHg 81%

    Tomorrow, 19 June, Tuesday

    Time Temperature Precipitation Wind Pressure Humidity
    00:00 +20°C° 0 mm 1 mps 753 mmHg 82%
    01:00 +20°C° 0 mm 1 mps 753 mmHg 83%
    02:00 +19°C° 0 mm 1 mps 753 mmHg 84%
    03:00 +20°C° 0 mm 1 mps 753 mmHg 84%
    04:00 +18°C° 0 mm 0 mps 753 mmHg 84%
    05:00 +18°C° 0 mm 0 mps 753 mmHg 84%
    06:00 +20°C° 0 mm 0 mps 753 mmHg 79%
    07:00 +21°C° 0 mm 0 mps 753 mmHg 74%
    08:00 +23°C° 0 mm 0 mps 754 mmHg 69%
    09:00 +24°C° 0 mm 0 mps 754 mmHg 65%
    10:00 +25°C° 0 mm 0 mps 754 mmHg 62%
    11:00 +26°C° 0 mm 0 mps 754 mmHg 58%
    12:00 +27°C° 0 mm 0 mps 754 mmHg 57%
    13:00 +29°C° 0 mm 1 mps 753 mmHg 55%
    14:00 +30°C° 0 mm 1 mps 753 mmHg 54%
    15:00 +30°C° 0 mm 1 mps 753 mmHg 56%
    16:00 +29°C° 0 mm 1 mps 753 mmHg 58%
    17:00 +29°C° 0 mm 1 mps 753 mmHg 60%
    18:00 +28°C° 0 mm 2 mps 753 mmHg 65%
    19:00 +26°C° 0 mm 2 mps 753 mmHg 70%
    20:00 +25°C° 0 mm 2 mps 753 mmHg 74%
    21:00 +24°C° 0 mm 2 mps 753 mmHg 77%
    22:00 +23°C° 0 mm 2 mps 753 mmHg 80%
    23:00 +23°C° 0 mm 2 mps 753 mmHg 83%

    Day after tomorrow, 20 June, Wednesday

    Time Temperature Precipitation Wind Pressure Humidity
    00:00 +21°C° 0.1 mm 2 mps 753 mmHg 85%
    01:00 +21°C° 0.1 mm 2 mps 753 mmHg 87%
    02:00 +21°C° 0.1 mm 2 mps 753 mmHg 89%
    03:00 +20°C° 0.1 mm 2 mps 754 mmHg 90%
    04:00 +20°C° 0.1 mm 2 mps 754 mmHg 91%
    05:00 +20°C° 0.1 mm 3 mps 754 mmHg 92%
    06:00 +22°C° 0 mm 3 mps 754 mmHg 87%
    07:00 +24°C° 0 mm 3 mps 754 mmHg 83%
    08:00 +25°C° 0 mm 4 mps 754 mmHg 79%
    09:00 +26°C° 0.1 mm 4 mps 754 mmHg 73%
    10:00 +27°C° 0.1 mm 4 mps 754 mmHg 68%
    11:00 +28°C° 0.1 mm 4 mps 755 mmHg 63%
    12:00 +28°C° 0 mm 4 mps 755 mmHg 61%
    13:00 +28°C° 0 mm 4 mps 754 mmHg 58%
    14:00 +29°C° 0 mm 4 mps 754 mmHg 56%
    15:00 +28°C° 0 mm 3 mps 754 mmHg 58%
    16:00 +28°C° 0 mm 3 mps 754 mmHg 60%
    17:00 +28°C° 0 mm 3 mps 754 mmHg 61%
    18:00 +26°C° 0 mm 2 mps 754 mmHg 65%
    19:00 +25°C° 0 mm 2 mps 754 mmHg 68%
    20:00 +23°C° 0 mm 2 mps 754 mmHg 72%
    21:00 +23°C° 0 mm 2 mps 755 mmHg 73%
    22:00 +21°C° 0 mm 2 mps 755 mmHg 75%
    23:00 +20°C° 0 mm 2 mps 755 mmHg 76%

    21 June, Thursday

    Time Temperature Precipitation Wind Pressure Humidity
    00:00 +20°C° 0 mm 1 mps 755 mmHg 78%
    01:00 +20°C° 0 mm 1 mps 755 mmHg 79%
    02:00 +19°C° 0 mm 1 mps 755 mmHg 81%
    03:00 +19°C° 0 mm 1 mps 755 mmHg 81%
    04:00 +19°C° 0 mm 1 mps 755 mmHg 81%
    05:00 +20°C° 0 mm 1 mps 755 mmHg 82%
    06:00 +21°C° 0 mm 1 mps 755 mmHg 76%
    07:00 +23°C° 0 mm 1 mps 755 mmHg 71%
    08:00 +24°C° 0 mm 1 mps 755 mmHg 65%
    09:00 +25°C° 0 mm 1 mps 754 mmHg 62%
    10:00 +26°C° 0 mm 1 mps 754 mmHg 59%
    11:00 +27°C° 0 mm 2 mps 754 mmHg 56%
    12:00 +28°C° 0 mm 1 mps 753 mmHg 55%
    13:00 +28°C° 0 mm 1 mps 753 mmHg 55%
    14:00 +28°C° 0 mm 1 mps 752 mmHg 54%
    15:00 +28°C° 0 mm 1 mps 752 mmHg 55%
    16:00 +28°C° 0 mm 1 mps 752 mmHg 56%
    17:00 +28°C° 0 mm 1 mps 752 mmHg 57%
    18:00 +27°C° 0 mm 1 mps 752 mmHg 62%
    19:00 +25°C° 0 mm 1 mps 751 mmHg 67%
    20:00 +24°C° 0 mm 2 mps 751 mmHg 72%
    21:00 +23°C° 0 mm 2 mps 751 mmHg 73%
    22:00 +21°C° 0 mm 2 mps 751 mmHg 75%
    23:00 +20°C° 0 mm 2 mps 751 mmHg 76%

    22 June, Friday

    Time Temperature Precipitation Wind Pressure Humidity
    00:00 +20°C° 0 mm 2 mps 751 mmHg 77%
    01:00 +19°C° 0 mm 2 mps 750 mmHg 78%
    02:00 +19°C° 0 mm 2 mps 750 mmHg 79%
    03:00 +19°C° 0 mm 2 mps 750 mmHg 81%
    04:00 +19°C° 0 mm 2 mps 749 mmHg 82%
    05:00 +18°C° 0 mm 3 mps 749 mmHg 84%
    06:00 +20°C° 0 mm 3 mps 749 mmHg 79%
    07:00 +22°C° 0 mm 3 mps 749 mmHg 75%
    08:00 +25°C° 0 mm 3 mps 749 mmHg 71%
    09:00 +26°C° 0 mm 4 mps 748 mmHg 67%
    10:00 +27°C° 0 mm 4 mps 748 mmHg 63%
    11:00 +28°C° 0 mm 4 mps 747 mmHg 60%
    12:00 +29°C° 0 mm 4 mps 747 mmHg 59%
    13:00 +29°C° 0 mm 4 mps 746 mmHg 58%
    14:00 +29°C° 0 mm 4 mps 746 mmHg 58%
    15:00 +29°C° 0.6 mm 4 mps 746 mmHg 61%
    16:00 +29°C° 0.6 mm 4 mps 746 mmHg 64%
    17:00 +28°C° 0.6 mm 4 mps 745 mmHg 68%
    18:00 +27°C° 0.4 mm 3 mps 746 mmHg 73%
    19:00 +25°C° 0.4 mm 3 mps 746 mmHg 78%
    20:00 +24°C° 0.4 mm 2 mps 746 mmHg 83%
    21:00 +22°C° 0.6 mm 3 mps 746 mmHg 86%
    22:00 +21°C° 0.6 mm 3 mps 746 mmHg 89%
    23:00 +20°C° 0.6 mm 4 mps 746 mmHg 92%

    23 June, Saturday

    Time Temperature Precipitation Wind Pressure Humidity
    00:00 +19°C° 0.7 mm 4 mps 746 mmHg 92%
    01:00 +17°C° 0.7 mm 5 mps 746 mmHg 91%
    02:00 +17°C° 0.7 mm 5 mps 746 mmHg 91%
    03:00 +16°C° 1 mm 5 mps 747 mmHg 91%
    04:00 +15°C° 1 mm 6 mps 747 mmHg 91%
    05:00 +14°C° 1 mm 6 mps 747 mmHg 91%
    06:00 +14°C° 1.1 mm 5 mps 748 mmHg 91%
    07:00 +14°C° 1.1 mm 5 mps 748 mmHg 90%
    08:00 +13°C° 1.1 mm 5 mps 749 mmHg 90%
    09:00 +14°C° 0.3 mm 4 mps 749 mmHg 86%
    10:00 +15°C° 0.3 mm 4 mps 749 mmHg 82%
    11:00 +17°C° 0.3 mm 4 mps 750 mmHg 77%
    12:00 +17°C° 0.1 mm 4 mps 750 mmHg 73%
    13:00 +18°C° 0.1 mm 4 mps 750 mmHg 68%
    14:00 +19°C° 0.1 mm 4 mps 750 mmHg 63%
    15:00 +19°C° 0 mm 3 mps 750 mmHg 61%
    16:00 +20°C° 0 mm 3 mps 750 mmHg 59%
    17:00 +20°C° 0 mm 2 mps 750 mmHg 57%
    18:00 +19°C° 0 mm 2 mps 750 mmHg 62%
    19:00 +18°C° 0 mm 2 mps 750 mmHg 66%
    20:00 +16°C° 0 mm 1 mps 750 mmHg 70%
    21:00 +16°C° 0 mm 2 mps 751 mmHg 72%
    22:00 +15°C° 0 mm 2 mps 751 mmHg 73%
    23:00 +15°C° 0 mm 2 mps 751 mmHg 75%
    Show more